Regional Weather Roundup
Issued by NWS Austin/San Antonio, TX

Home | Current Version | Previous Version | Text Only | Print | Product List | Glossary On
Versions: 1 2 3 4 5 6 7 8 9 10 11 12 13 14 15 16 17 18 19 20 21 22 23 24 25 26 27 28 29 30 31 32 33 34 35 36 37 38 39 40 41 42 43 44 45 46 47 48 49 50
000
ASUS44 KEWX 181011
RWREWX
SOUTH TEXAS REGIONAL WEATHER ROUNDUP
NATIONAL WEATHER SERVICE AUSTIN/SAN ANTONIO TX
400 AM CST THU JAN 18 2018

NOTE: "FAIR" INDICATED FEW OR NO CLOUDS BELOW 12,000 FEET WITH NO
SIGNIFICANT WEATHER AND/OR OBSTRUCTIONS TO VISIBILITY.

* - THESE STATIONS ARE NOT NWS OR FAA STATIONS...AND ARE NOT SUBJECT
    TO NWS AND FAA QUALITY CONTROL.

TXZ171-172-183>190-181100-
TEXAS HILL COUNTRY AND EDWARDS PLATEAU

CITY           SKY/WX    TMP DP  RH WIND       PRES   REMARKS
JUNCTION       CLOUDY    34  10  37 SW5       30.46F WCI  30
*LLANO         CLOUDY    32  16  51 E3        30.55S
BURNET         CLOUDY    28  12  51 CALM      30.53S
*HORSESHOE BAY CLOUDY    32  16  51 CALM      30.52S
*KERRVILLE     CLOUDY    31  14  50 S6        30.48F WCI  25
*FREDERICKSBRG CLOUDY    31  14  49 SW6       30.47F WCI  25
*ROCKSPRINGS     N/A     28   9  43 CALM      30.48F
*BOERNE STAGE  CLOUDY    30  14  51 S3        30.51F
*CASTROVILLE   CLOUDY    33  14  45 CALM      30.55F
HONDO          CLOUDY    35  15  44 CALM      30.52F
*UVALDE        CLOUDY    32  15  49 CALM      30.52F
DEL RIO        CLOUDY    34  13  41 E10       30.50S WCI  26
LAUGHLIN AFB   CLOUDY    33  12  41 SE8       30.50S WCI  27
CARRIZO SPRGS  CLOUDY    32  18  55 E6        30.53S WCI  26
*EAGLE PASS    NOT AVBL
$$

TXZ173-191>194-202-209-217>225-228-181100-
CENTRAL AND SOUTH CENTRAL TEXAS

CITY           SKY/WX    TMP DP  RH WIND       PRES   REMARKS
GEORGETOWN     CLOUDY    20  13  74 CALM      30.56S
AUSTIN/BERGSTM CLOUDY    30  17  58 CALM      30.55F
AUSTIN/MABRY   CLOUDY    30  13  49 CALM      30.56F
*AUSTIN/EXEC   CLOUDY    25  18  74 CALM      30.55F
*LAGO VISTA    CLOUDY    28  13  52 MISG      30.51F
SAN MARCOS     CLOUDY    32  15  49 CALM      30.56S
NEW BRAUNFELS  CLOUDY    33  15  47 CALM      30.54S
RANDOLPH AFB   CLOUDY    32  14  47 CALM      30.55S
PT SAN ANTONIO CLOUDY    34  16  47 S5        30.52F WCI  30
SAN ANTONIO    CLOUDY    34  15  46 VRB3      30.53F
STINSON FIELD  CLOUDY    35  16  45 S3        30.53F
*LA GRANGE     NOT AVBL
*GIDDINGS      CLOUDY    22  19  89 CALM      30.56F
*GONZALES      CLOUDY    34  16  47 CALM      30.56S
$$

TXZ163>164-176>182-195>201-210>213-226-227-235-181100-
SOUTHEAST TEXAS

CITY           SKY/WX    TMP DP  RH WIND       PRES   REMARKS
COLLEGE STN    CLOUDY    23  13  65 NE5       30.57F WCI  17
*BRYAN         CLOUDY    19  13  77 CALM      30.59F
*CALDWELL      CLOUDY    19  13  79 CALM      30.58S
*CROCKETT        N/A     14  10  85 CALM      30.62S
*BRENHAM       CLOUDY    21  18  89 CALM      30.58F
HUNTSVILLE     FAIR      17  14  88 CALM      30.57F
CONROE         FAIR      15  14  95 NW3       30.57F
HOUSTON BUSH   FAIR      23  17  78 CALM      30.58F
HOUSTON HOBBY  FAIR      27  18  69 CALM      30.58R
*HOUSTON SW AP CLOUDY    28  20  72 MISG      30.58F
PEARLAND       FAIR      27  21  78 N3        30.59S
HOUSTON HOOKS  FAIR      24  17  74 CALM      30.58
ELLINGTON FLD  CLEAR     27  16  63 N5        30.59  WCI  21
SUGAR LAND     CLOUDY    29  21  72 CALM      30.57F
*HOUSTON EXEC  MOCLDY    23  19  86 NE3       30.58F
*CLEVELAND MUN FAIR      18  16  89 CALM      30.59F
*WHARTON       CLOUDY    30  21  68 NE3       30.57F
*COLUMBUS      CLOUDY    31  14  51 NW3       30.57F
*EAGLE LAKE    CLOUDY    30  21  68 NE5       30.56F WCI  25
$$

TXZ214>216-236>238-181100-
THE UPPER TEXAS COAST

CITY           SKY/WX    TMP DP  RH WIND       PRES   REMARKS
*ORANGE        FAIR      22  18  85 CALM      30.61F
PORT ARTHUR    FAIR      24  15  68 NE6       30.59F WCI  17
GALVESTON      FAIR      33  24  69 N8        30.57R WCI  26
ANGLETON       CLOUDY    31  22  69 N7        30.56F WCI  24
*BAY CITY      CLOUDY    33  22  63 NE6       30.55F WCI  28
PALACIOS       NOT AVBL
$$

TXZ229>234-239>247-181100-
TEXAS COASTAL BEND AND RIO GRANDE PLAINS

CITY           SKY/WX    TMP DP  RH WIND       PRES   REMARKS
VICTORIA       CLOUDY    35  17  47 NE6       30.57S WCI  30
*BEEVILLE      CLOUDY    34  17  49 N9        30.55F WCI  26
ROCKPORT       CLOUDY    35  21  56 N8        30.55F WCI  29
*PORT ARANSAS  NOT AVBL
*PORT LAVACA   CLOUDY    34  23  63 N6        30.56F WCI  29
*INGLESIDE     CLOUDY    37  22  55 N9        30.54F WCI  30
CORPUS CHRISTI CLOUDY    35  18  49 N13       30.54F WCI  26
CORPUS NAS     CLOUDY    38  25  59 N14       30.54F WCI  30
*ROBSTOWN      CLOUDY    35  17  47 N9        30.54F WCI  28
ALICE          CLOUDY    35  13  40 N8        30.54S WCI  29
KINGSVILLE NAS CLOUDY    36  16  44 N9        30.54S WCI  29
COTULLA        CLOUDY    34  12  40 E3        30.54F
LAREDO         CLOUDY    35  20  54 NE6       30.53F WCI  30
$$

TXZ248>255-181100-
DEEP SOUTH TEXAS

CITY           SKY/WX    TMP DP  RH WIND       PRES   REMARKS
BROWNSVILLE    NOT AVBL
PORT ISABEL    NOT AVBL
*SOUTH PADRE   NOT AVBL
HARLINGEN      NOT AVBL
*HEBBRONVILLE  CLOUDY    32  13  44 NE5       30.52S WCI  28
MCALLEN        NOT AVBL
*WESLACO       CLOUDY    35  16  46 N9        30.51S WCI  28
FALFURRIAS     CLOUDY    36  13  39 N6        30.53F WCI  31
EDINBURG       CLOUDY    37  13  36 N8        30.52F WCI  31
*ZAPATA        CLOUDY    36  16  44 NE3       30.51F
$$

TXZ213>215-236>238-242>244-246-247-251-254-255-181100-
CMAN STATIONS

STATION/POSITION TIME  TEMP    WIND        PRES    WAVE
                       AIR SEA DIR/SP/G            HT/PER
                 (UTC) (F)     (DEG/KT/KT) (MB)    (FT/S)
SABINE PASS      0942   25 48   20/  9/ 11 1037.3
SEA RIM ST PARK  1000   25      50/  8/  9 1035.6
NORTH JETTY/GLS  0942      45   40/ 15/ 18 1034.1
EAGLE POINT      0942   31 40   80/ 15/ 16 1035.2
MORGANS POINT    0942      45   50/  9/ 11 1035.0
PORT O`CONNOR    0942   36 44   40/  9/ 11 1034.4
MALAQUITE BEACH  0942   37 49  350/ 14/ 17 1033.3
BAFFIN BAY       0942   36 42  350/ 12/ 14 1034.0
PORT ISABEL      0942   38 49  320/ 11/ 16 1031.3
$$




USA.gov is the U.S. government's official web portal to all federal, state and local government web resources and services.